Find Yaogan 36 02 zu 01 xing

NORAD ID: 54042 Int'l Des: 2022-133 Owner: ZZB Country: CN Constellation: yaogan operational
LEOCIRCULAR

Current View

Loading 3D Globe...

About Yaogan 36 02 zu 01 xing

Yaogan 36 02 zu 01 xing (NORAD 54042) is a yaogan constellation satellite launched Oct 14, 2022 by ZZB of CN. It operates in LEO, CIRCULAR orbit with a mass of 300.00 kg.

About Yaogan 36 02 zu 01 xing

Description loading...

Upcoming Passes

Passes for default location (London). Set your location on the main map for personalized predictions.

Altitude History

Loading altitude history...

Two-Line Element Set

1 54042U 22133A 26194.79549900 .00005618 00000-0 23321-3 0 9995
2 54042 35.0075 312.4521 0024852 86.6554 273.7003 15.22921311208818
Epoch: Jul 13, 2026 • Age: 17 hours

Current Status

Altitude 492.3 km
Apogee / Perigee N/A
Velocity 7.62 km/s
Sub-Earth Point 7.47°N, 160.59°W
Launch Date Oct 14, 2022
Age 3.7 years
Type military

Technical Details

Classification Payload
Mass 300.00 kg
Dry Mass 300.00 kg
Total Mass 300.00 kg
Length 2.50 m
Diameter 2.50 m
Span 5.00 m
Shape Box + 2 Pan
Manufacturer DFHZ
Phase Status In Orbit
Owner/State ZZB/CN

Most Searched